Showing default

COSMOS 2476 (GLONASS), 37867

Orbit data source: Space-Track

COSMOS 2476 (GLONASS), 37867 is a Commonwealth of Independent States-origin payload satellite in MEO that was launched on Fri, 04 Nov 2011 UTC via a PROTON-M/BRIZ-M launch vehicle from the Tyuratam Missile And Space Complex (TTMTR). Payload-class satellites include a variety of spacecraft equipped with specific instruments for various scientific and technological missions. These include communications satellites like Starlink; space stations such as the ISS; scientific satellites like the Hubble; Earth observation satellites from companies like Planet Labs, Umbra, and HawkEye 360; GPS; miniature CubeSats for education and research; and military/defense satellites.

Loading next visibility...
Identifier
37867, 2011-064A
Orbit
MEO
Last TLE update
11 hours ago
Origin
Manufacturer
Resehetnev ISS
Mission
Operational Defense Navigation
Bus & Motor
URAGAN, Unknown motor
Mass
1,450 kg wet, ~1,200 kg dry
Launch date (UTC)
2011-11-04 (14 years ago)
Launch vehicle
PROTON-M/BRIZ-M
Launch site
Tyuratam Missile And Space Complex (TTMTR)
Object type
Payload
Rocket body
Debris
Shape & HBR
Cyl + 1 Ant + 2 Pan, 7.8 m
Radar Cross Section
8.467 m², Large (>1 m²)

Expand to show TLE details & history

TLE from 11 hours ago
0 COSMOS 2476 (GLONASS)
1 37867U 11064A   25192.52349527  .00000002  00000-0  00000-0 0  9991
2 37867  65.0746  84.3893 0022026 236.6949 302.1886  2.13101577106504
Epoch: 2025-07-11T12:33Z
TLE epoch observation values (Epoch: 2025-07-11T12:33:49.991Z)
Latitude
1.21291°
Longitude
145.71253°
Altitude
19,100.474 km
Speed
3.958 km/s
True Right ascension
17h 35m 22s
True Declination
1° 12' 39"
Sunlit
Object was in daylight at epoch
Visualization orbit readout
Latitude
8.18686°
Longitude
142.43549°
Altitude
19,106.61 km
Speed
3.957 km/s
Apparent Right ascension
18h 07m 00s
Apparent Declination
-1° 01' 34"
Sunlit
Object is in daylight
Visualization observer readout
Local Sidereal Time
11:55:13
Azimuth
88.896° E
Elevation
-2.918°
Doppler factor
1
Orbital elements
Apogee altitude
19,185.717 km
Perigee altitude
19,073.35 km
Semi-major axis
25,507.671 km
Eccentricity
0.0022
Inclination
65.0746°
RAAN
84.3893°
Arg. of periapsis
236.6949°
True anomaly
Unknown
Mean anomaly
302.1886°
Eccentric anomaly
Unknown
Mean motion
0.53277 °/min
Orbital period
675.72 mins
BSTAR
0
Loading maneuver chart data...
Loading SW <> Apogee altitude chart data...
Loading historical data...
Loading historical data...
Loading historical data...
Loading historical data...
Loading historical data...
Loading historical data...
Loading historical data...

COSMOS 2476 (GLONASS) Visibility forecast

Observer location: undefined°, undefined°

Span
Click to sort rows by Start time (UTC) header in descending order
Start Az.
Max El. time (UTC)
Max El. Az.
Max El.
End time (UTC)
End Az.
65 mins2025-07-12 08:38:10.983Z333.848° NNW2025-07-12 09:10:10.983Z318.796° NNW12.704°2025-07-12 09:43:10.983Z302.687° NW
285 mins2025-07-12 15:54:10.983Z171.917° S2025-07-12 18:07:10.983Z96.911° ESE44.641°2025-07-12 20:39:10.983Z46.378° ENE
|